Location: Heilbronn
(49.1548°N, 9.2780°E)
Time: 12:32:36
(UTC+01:00)

ISS - Pass Details

Date: 10 January 2018
Orbit: 402 x 407 km, 51.6° (Epoch: 18 January)

Event Time Altitude Azimuth Distance (km) Brightness Sun altitude
Exits shadow 04:58:42 11° 79° (E) 1,396 -0.3 -31.3°
Drops below altitude 10° 04:58:53 10° 80° (E) 1,468 -0.1 -31.2°
Sets 05:01:00 0° 85° (E) 2,330 1.2 -30.9°
